EW6790 Weather Reports


Display with metric or nautical units.
time (UTC)temp
F
wind
direction
speed
MPH
gust
MPH
rain 1hr
in
rain 24hr
in
rain mn
in
humidity
%
barometer
mb
20260902173017 82 251 2.0 6.0 0.00 1.33 0.00 77 1010.3
20260902171602 83 254 1.0 5.0 0.00 1.33 1.33 74 1010.3
20260902170058 83 208 1.0 6.0 0.00 1.33 1.33 74 1010.1
20260902164541 81 229 2.0 8.0 0.00 1.33 1.33 82 1010.4
20260902163052 80 167 6.0 11.0 0.00 1.33 1.33 83 1010.6
20260902161526 79 204 4.0 11.0 0.00 1.33 1.33 86 1010.5
20260902160021 78 227 4.0 11.0 0.00 1.33 1.33 86 1010.4
20260902154503 76 197 8.0 12.0 0.00 1.33 1.33 66 1010.5
20260902153003 75 206 8.0 11.0 0.00 1.33 1.33 47 1010.5
20260902151551 74 212 5.0 12.0 0.00 1.33 1.33 45 1010.3
20260902150043 73 218 5.0 11.0 0.00 1.33 1.33 44 1009.9
20260902144534 72 232 6.0 10.0 0.00 1.33 1.33 44 1009.8
20260902143025 72 175 6.0 10.0 0.00 1.33 1.33 43 1009.9
20260902141506 71 201 5.0 11.0 0.00 1.33 1.33 43 1010.1
20260902140006 70 203 2.0 5.0 0.00 1.33 1.33 43 1010.1
20260902134602 69 205 4.0 9.0 0.00 1.33 1.33 43 1010.1
20260902133049 68 205 5.0 8.0 0.00 1.33 1.33 42 1009.9
20260902131544 68 165 3.0 8.0 0.00 1.33 1.33 43 1009.7
20260902130033 66 171 3.0 7.0 0.00 1.33 1.33 43 1009.7
20260902124535 67 108 1.0 4.0 0.00 1.33 1.33 43 1009.9
20260902123031 0 0.0 0.0 0.00 1.33 1.33 1009.9
20260902121530 0 0.0 0.0 0.00 1.33 1.33 1010.0
20260902120034 0 0.0 0.0 0.00 1.33 1.33 1009.9
20260902114531 0 0.0 0.0 0.00 1.33 1.33 1010.3
20260902113026 0 0.0 0.0 0.00 1.33 1.33 1010.2
20260902111512 0 0.0 0.0 0.00 1.33 1.33 1010.1
20260902110101 0 0.0 0.0 0.00 1.33 1.33 1010.0
20260902104538 0 0.0 0.0 0.00 1.33 1.33 1010.0
20260902103039 0 0.0 0.0 0.00 1.33 1.33 1009.9
20260902101514 0 0.0 0.0 0.00 1.33 1.33 1009.9
20260902100008 0 0.0 0.0 0.00 1.33 1.33 1010.1
20260902094547 67 99 7.0 12.0 0.00 1.33 1.33 44 1010.4
20260902093047 67 117 7.0 12.0 0.00 1.33 1.33 43 1010.8
20260902091556 67 117 6.0 9.0 0.00 1.33 1.33 44 1011.5
20260902090029 67 220 0.0 5.0 0.00 1.33 1.33 44 1012.4
20260902084511 67 227 7.0 13.0 0.00 1.33 1.33 43 1012.3
20260902083010 67 148 3.0 8.0 0.00 1.33 1.33 43 1010.6
20260902081551 67 118 7.0 10.0 0.00 1.33 1.33 44 1009.9
20260902080104 67 170 2.0 6.0 0.00 1.33 1.33 44 1010.4
20260902074534 67 95 2.0 8.0 0.00 1.33 1.33 44 1010.2
20260902073033 66 91 5.0 16.0 0.00 1.33 1.33 45 1009.6
20260902071534 66 134 12.0 16.0 0.00 1.33 1.33 45 1009.0
20260902070010 66 120 8.0 10.0 0.01 1.33 1.33 45 1009.4
20260902064617 66 85 4.0 9.0 0.20 1.33 1.33 45 1010.4
20260902063051 66 61 7.0 14.0 0.79 1.33 1.33 46 1010.6
20260902061603 66 60 4.0 7.0 1.09 1.33 1.33 46 1010.7
20260902060033 66 56 1.0 5.0 1.27 1.32 1.32 47 1011.4
20260902054535 67 48 0.0 15.0 1.07 1.08 1.08 49 1012.7
20260902053006 68 295 8.0 33.0 0.51 0.52 0.52 49 1013.0
20260902051502 68 340 3.0 13.0 0.19 0.20 0.20 62 1011.7
20260902050045 72 50 1.0 6.0 0.04 0.05 0.05 73 1011.0
20260902044540 72 341 2.0 7.0 0.00 0.01 0.01 80 1010.2
20260902043017 73 169 0.0 6.0 0.01 0.01 0.01 86 1010.1
20260902041530 76 302 4.0 30.0 0.01 0.01 0.01 85 1011.0
20260902040100 72 209 4.0 9.0 0.01 0.01 0.01 86 1010.2
20260902034558 72 63 4.0 7.0 0.01 0.01 0.01 85 1009.9
20260902033038 72 360 0.0 7.0 0.00 0.00 0.00 87 1010.3
20260902031536 73 60 2.0 6.0 0.00 0.00 0.00 86 1010.1
20260902030020 73 72 0.0 2.0 0.00 0.00 0.00 84 1010.4
20260902024517 73 71 0.0 5.0 0.00 0.00 0.00 82 1010.4
20260902023105 73 77 4.0 6.0 0.00 0.00 0.00 81 1010.3
20260902021603 73 80 4.0 5.0 0.00 0.00 0.00 85 1010.0
20260902020040 73 67 4.0 7.0 0.00 0.00 0.00 85 1010.1
20260902014543 74 70 4.0 5.0 0.00 0.00 0.00 84 1010.2
20260902013018 75 78 4.0 6.0 0.00 0.00 0.00 84 1010.1
20260902011522 76 80 5.0 6.0 0.00 0.00 0.00 83 1010.1
20260902010118 76 64 4.0 7.0 0.00 0.00 0.00 83 1010.2
20260902004556 77 69 0.0 5.0 0.00 0.00 0.00 86 1010.2
20260902003035 77 66 2.0 4.0 0.00 0.00 0.00 86 1010.0
20260902001532 78 78 3.0 5.0 0.00 0.00 0.00 84 1010.1
20260902000020 78 70 4.0 6.0 0.00 0.00 0.00 84 1010.2
20260901234509 79 59 3.0 5.0 0.00 0.00 0.00 83 1010.3
20260901233059 79 72 3.0 5.0 0.00 0.00 0.00 84 1010.3
20260901231555 80 71 4.0 5.0 0.00 0.00 0.00 82 1010.3
20260901230034 80 61 1.0 4.0 0.00 0.00 0.00 82 1010.3
20260901224539 81 86 3.0 5.0 0.00 0.00 0.00 82 1010.3
20260901223040 81 74 3.0 6.0 0.00 0.00 0.00 80 1010.2
20260901221514 81 75 4.0 6.0 0.00 0.00 0.00 82 1010.3
20260901220013 81 94 4.0 6.0 0.00 0.00 0.00 81 1010.4
20260901214513 81 59 3.0 6.0 0.00 0.00 0.00 82 1010.4
20260901213010 82 80 1.0 5.0 0.00 0.00 0.00 78 1010.7
20260901211517 83 107 3.0 8.0 0.00 0.00 0.00 75 1010.6
20260901210006 83 94 3.0 6.0 0.00 0.00 0.00 81 1010.5
20260901204505 83 103 1.0 5.0 0.00 0.00 0.00 77 1010.9
20260901203045 84 85 3.0 7.0 0.00 0.00 0.00 71 1010.8
20260901201543 85 87 5.0 8.0 0.00 0.00 0.00 70 1010.5
20260901200039 85 88 4.0 7.0 0.00 0.00 0.00 75 1010.6
20260901194522 85 95 2.0 5.0 0.00 0.00 0.00 76 1010.8
20260901193004 85 77 3.0 5.0 0.00 0.00 0.00 76 1010.8
20260901191503 86 104 1.0 3.0 0.00 0.00 0.00 69 1011.1
20260901190101 86 140 0.0 4.0 0.00 0.00 0.00 71 1011.5
20260901184546 86 88 3.0 7.0 0.00 0.00 0.00 67 1011.3
20260901183045 86 117 1.0 7.0 0.00 0.00 0.00 68 1011.3
20260901181543 85 122 2.0 5.0 0.00 0.00 0.00 70 1011.5
20260901180038 85 85 0.0 2.0 0.00 0.00 0.00 76 1011.9
20260901174545 85 75 2.0 5.0 0.00 0.00 0.00 73 1012.1